#timestamp,LO_Frequency,Hit,StdDev 
1531407615.7,286047002.3,N
1531407635.5,286047004.2,Y
1531407655.3,286047003.5,P
1531407675.2,286047001.5,N
1531407695.0,286047002.4,N
1531407695.9,286047002.4,N
1531407715.8,286047000.0,N
1531407735.6,286047000.0,N
1531407755.4,286047000.5,N
1531407775.3,286047000.4,N
1531407795.1,286047000.3,N
1531407815.8,286047000.6,N
1531407835.7,286047000.3,N
1531407855.5,286046999.7,N
1531407875.3,286047000.5,N
1531407895.2,286047001.5,N
1531407915.0,286047001.7,N
1531407915.9,286047001.7,N
1531407935.8,286047003.6,Y
1531407955.6,286046999.7,P
1531407975.4,286047000.5,N
1531407995.3,286046999.9,N
1531408015.1,286047000.3,N
1531408035.7,286047002.5,Y
1531408055.5,286047002.0,P
1531408075.4,286047002.5,N
1531408095.2,286047002.2,N
1531408115.0,286047002.6,N
1531408116.0,286047002.6,Y
1531408135.8,286046998.4,P
1531408155.6,286046998.2,N
1531408175.5,286046999.3,N
1531408195.3,286046999.4,N
1531408215.1,286046996.5,N
1531408235.9,286046996.5,N
1531408255.7,286046998.8,N
1531408275.6,286046999.2,N
1531408295.4,286046998.9,N
1531408315.2,286046998.9,N
1531408335.1,286046999.5,N
1531408336.0,286046999.5,N
1531408355.8,286046999.4,N
1531408375.6,286046998.8,N
1531408395.5,286047000.8,N
1531408415.3,286047001.2,N
1531408435.2,286046998.2,N
1531408455.9,286046999.5,N
1531408475.7,286046999.0,N
1531408495.6,286046997.4,N
1531408515.4,286046997.0,N
1531408535.2,286046996.6,N
1531408555.1,286046999.2,N
1531408556.0,286046999.2,N
1531408575.8,286046999.2,N
1531408595.7,286046998.8,N
1531408615.5,286046999.6,N
1531408635.3,286046996.9,N
1531408655.2,286046998.1,N
1531408675.9,286046998.9,N
1531408695.7,286046999.6,N
1531408715.6,286046997.7,N
1531408735.4,286046997.1,N
1531408755.3,286046997.7,N
1531408775.1,286046997.8,N
1531408776.0,286046997.8,N
1531408795.8,286046998.0,N
1531408815.7,286046997.6,N
1531408835.5,286046997.0,N
1531408855.4,286046996.8,N
1531408875.2,286046999.0,N
1531408895.0,286047000.7,N
1531408915.3,286046998.7,N
1531408935.2,286046999.6,N
1531408955.9,286046998.2,N
1531408975.7,286046999.1,N
1531408995.6,286046998.3,N
1531409015.4,286046998.7,N
1531409035.3,286046996.6,Y
1531409055.1,286046998.6,P
1531409056.0,286046998.6,P
1531409075.8,286046998.3,P
1531409095.7,286046999.5,Y
1531409115.5,286047000.9,P
1531409135.3,286046999.8,N
1531409155.2,286047002.4,N
1531409175.0,286047001.4,N
1531409175.9,286047001.4,N
1531409195.8,286047003.6,N
1531409215.6,286047004.0,N
1531409235.4,286047004.3,N
1531409255.3,286047004.3,N
1531409275.1,286047003.8,N
1531409295.8,286047003.1,N
1531409315.7,286047001.5,N
1531409335.5,286047002.7,N
1531409355.4,286047001.9,N
1531409375.2,286047001.7,N
1531409395.0,286047001.3,N
1531409396.0,286047001.3,N
1531409415.8,286047001.7,N
1531409435.7,286047000.1,N
1531409455.5,286047002.8,N
1531409475.3,286047002.4,N
1531409495.2,286047002.1,N
1531409515.9,286047001.3,N
1531409535.7,286047003.9,N
1531409555.6,286047001.6,N
1531409575.4,286047002.0,N
1531409595.3,286047003.1,N
1531409615.1,286047006.0,Y
1531409616.0,286047006.0,P
1531409635.8,286047002.8,N
1531409655.7,286047000.3,N
1531409675.5,286047000.9,N
1531409695.3,286047000.5,N
1531409715.2,286047000.8,N
1531409735.0,286047001.0,N
1531409735.9,286047001.0,N
1531409755.8,286046998.7,N
1531409775.6,286047001.0,N
1531409795.4,286046999.4,N
1531409815.3,286046997.2,N
1531409835.1,286046996.9,N
1531409855.8,286046999.2,N
1531409875.7,286046997.2,N
1531409895.5,286046999.2,N
1531409915.4,286046998.6,N
1531409935.2,286046999.3,N
1531409955.0,286046998.2,N
1531409955.9,286046998.2,N
1531409975.8,286046998.6,N
1531409995.6,286046998.7,N
1531410015.4,286047000.8,N
1531410035.3,286046999.4,N
1531410055.1,286046999.3,N
1531410075.9,286046998.3,N
1531410095.7,286047001.2,N
1531410115.5,286046999.0,N
1531410135.4,286047000.6,N
1531410155.2,286047001.0,N
1531410175.0,286047000.6,N
1531410175.9,286047000.6,N
1531410195.8,286047000.0,N
1531410215.6,286047000.9,N
1531410235.5,286047000.8,N
1531410255.3,286047000.7,N
1531410275.1,286046998.2,N
1531410295.9,286046996.9,N
1531410315.7,286046997.5,N
1531410335.5,286046996.9,N
1531410355.4,286046996.8,N
1531410375.2,286046996.7,N
1531410395.1,286046997.4,N
1531410396.0,286046997.4,N
1531410415.8,286046999.6,N
1531410435.6,286046996.7,N
1531410455.5,286046998.9,N
1531410475.3,286046998.4,N
1531410495.2,286046998.1,N
1531410515.9,286046999.1,N
1531410535.7,286046999.1,N
1531410555.6,286046996.9,N
1531410575.4,286046997.0,N
1531410595.2,286046997.9,N
1531410615.1,286046995.5,N
1531410616.0,286046995.5,N
1531410635.8,286046995.1,N
1531410655.7,286046997.4,N
1531410675.5,286046997.2,N
1531410695.3,286046997.4,N
1531410715.2,286046997.1,N
1531410735.9,286046999.1,N
1531410755.7,286046998.8,N
1531410775.6,286047000.7,N
1531410795.4,286046997.6,N
1531410815.3,286046995.6,Y
1531410835.1,286047001.2,P
1531410836.0,286047001.2,N
1531410855.8,286047001.0,N
1531410875.7,286046998.5,N
1531410895.5,286047001.2,N
1531410915.3,286047001.1,N
1531410935.2,286046998.9,N
1531410955.0,286046997.2,N
1531410955.9,286046997.2,N
1531410975.8,286046996.6,N
1531410995.6,286046999.2,N
1531411015.4,286046999.1,N
1531411035.3,286046998.6,N
1531411055.1,286046996.8,N
1531411075.8,286046997.0,N
1531411095.7,286046999.4,N
1531411115.5,286046998.9,N
1531411135.4,286046996.5,N
1531411155.2,286046996.8,N
1531411175.0,286046998.9,N
1531411175.9,286046998.9,N
1531411195.8,286046998.3,N
